Weather History for Iowa Falls, IA

Change the Weather History Date:

Sunday, December 1, 2013

  Actual Average Record
Temperature  
Mean Temperature 29 °F -  
Max Temperature 36 °F 34 °F 65 °F (1962)
Min Temperature 22 °F 18 °F -4 °F (1985)
Degree Days  
Heating Degree Days 36    
Moisture  
Dew Point 26 °F    
Average Humidity 82    
Maximum Humidity 91    
Minimum Humidity 69    
Precipitation  
Precipitation 0.00 in - - ()
Sea Level Pressure  
Sea Level Pressure 30.07 in    
Wind  
Wind Speed 5 mph (NNE)    
Max Wind Speed 9 mph    
Max Gust Speed -    
Visibility 10 miles    
Events      
Averages and records for this station are not official NWS values.
T = Trace of Precipitation, MM = Missing Value Source: NWS Daily Summary

Daily Weather History Graph

Daily Weather History Graph

Search for Another Location

Airport:

Trip Planner

Search our weather history database for the weather conditions in past years. The results will help you decide how hot, cold, wet, or windy it might be!

Date:

Astronomy

Dec. 01, 2013 Rise Set
Actual Time 7:23 AM CST 4:41 PM CST
Civil Twilight 6:51 AM CST 5:12 PM CST
Nautical Twilight 6:16 AM CST 5:47 PM CST
Astronomical Twilight 5:42 AM CST 6:21 PM CST
Moon 5:40 AM CST (12/1) 3:52 PM CST (12/1)
Length of Visible Light 10h 20m
Length of Day
9h 17m
Waning Crescent, 2% of the Moon is Illuminated
Dec 1
Waning Crescent
Dec 2
New
Dec 9
First Quarter
Dec 17
Full
Dec 25
Last Quarter

Hourly Weather History & Observations

Time (CST) Temp. Windchill Dew Point Humidity Pressure Visibility Wind Dir Wind Speed Gust Speed Precip Events Conditions
12:15 AM 31.8 °F 24.6 °F 27.0 °F 82% 30.12 in 10.0 mi NNW 8.1 mph - N/A   Clear
12:35 AM 32.0 °F 25.6 °F 26.6 °F 80% 30.12 in 10.0 mi NNW 6.9 mph - N/A   Clear
12:55 AM 32.0 °F 25.6 °F 26.6 °F 80% 30.12 in 10.0 mi North 6.9 mph - N/A   Clear
1:15 AM 31.8 °F 24.6 °F 26.4 °F 80% 30.12 in 10.0 mi NNW 8.1 mph - N/A   Clear
1:35 AM 31.8 °F 25.4 °F 26.2 °F 80% 30.13 in 10.0 mi NNW 6.9 mph - N/A   Clear
1:55 AM 31.5 °F 24.2 °F 26.2 °F 81% 30.13 in 10.0 mi NNW 8.1 mph - N/A   Clear
2:15 AM 31.1 °F 24.5 °F 25.7 °F 80% 30.13 in 10.0 mi NNW 6.9 mph - N/A   Clear
2:35 AM 30.2 °F 24.3 °F 25.5 °F 83% 30.12 in 10.0 mi North 5.8 mph - N/A   Clear
2:55 AM 29.1 °F 23.0 °F 25.0 °F 85% 30.13 in 10.0 mi NNW 5.8 mph - N/A   Clear
3:15 AM 28.8 °F 22.6 °F 24.6 °F 84% 30.13 in 10.0 mi NNW 5.8 mph - N/A   Clear
3:35 AM 28.0 °F 21.7 °F 23.9 °F 84% 30.14 in 10.0 mi NNW 5.8 mph - N/A   Clear
3:55 AM 27.1 °F 23.2 °F 23.5 °F 86% 30.14 in 10.0 mi NW 3.5 mph - N/A   Clear
4:15 AM 25.9 °F 19.2 °F 22.6 °F 88% 30.14 in 10.0 mi WNW 5.8 mph - N/A   Clear
4:35 AM 24.4 °F 18.6 °F 21.9 °F 90% 30.14 in 10.0 mi WNW 4.6 mph - N/A   Clear
4:55 AM 23.7 °F 17.8 °F 21.2 °F 90% 30.14 in 10.0 mi WNW 4.6 mph - N/A   Clear
5:15 AM 22.8 °F 18.2 °F 20.3 °F 90% 30.14 in 10.0 mi West 3.5 mph - N/A   Clear
5:35 AM 23.2 °F 18.7 °F 20.8 °F 91% 30.13 in 10.0 mi NNW 3.5 mph - N/A   Clear
5:55 AM 23.5 °F - 21.2 °F 91% 30.13 in 10.0 mi Calm Calm - N/A   Clear
6:15 AM 23.5 °F - 20.8 °F 89% 30.14 in 10.0 mi Calm Calm - N/A   Clear
6:35 AM 22.8 °F 16.7 °F 20.3 °F 90% 30.15 in 10.0 mi NW 4.6 mph - N/A   Clear
6:55 AM 22.5 °F - 19.4 °F 88% 30.15 in 10.0 mi Calm Calm - N/A   Clear
7:15 AM 23.5 °F - 21.2 °F 91% 30.14 in 10.0 mi Calm Calm - N/A   Clear
7:35 AM 23.2 °F - 20.1 °F 88% 30.14 in 10.0 mi Calm Calm - N/A   Mostly Cloudy
7:55 AM 23.0 °F 15.8 °F 20.7 °F 91% 30.16 in 7.0 mi NW 5.8 mph - N/A   Overcast
8:15 AM 25.5 °F 18.7 °F 23.0 °F 90% 30.16 in 7.0 mi NW 5.8 mph - N/A   Overcast
8:35 AM 26.8 °F 20.2 °F 23.7 °F 88% 30.17 in 10.0 mi NNW 5.8 mph - N/A   Mostly Cloudy
8:55 AM 28.0 °F - 24.8 °F 88% 30.16 in 10.0 mi Calm Calm - N/A   Mostly Cloudy
9:15 AM 29.3 °F 23.2 °F 25.0 °F 84% 30.15 in 10.0 mi NNE 5.8 mph - N/A   Scattered Clouds
9:35 AM 30.2 °F 23.4 °F 25.9 °F 84% 30.15 in 10.0 mi NNE 6.9 mph - N/A   Scattered Clouds
9:55 AM 31.3 °F 23.9 °F 26.4 °F 82% 30.14 in 7.0 mi NNE 8.1 mph - N/A   Clear
10:15 AM 32.0 °F 24.8 °F 26.6 °F 80% 30.15 in 10.0 mi NNE 8.1 mph - N/A   Clear
10:35 AM 33.1 °F 26.9 °F 27.5 °F 80% 30.14 in 10.0 mi ENE 6.9 mph - N/A   Clear
10:55 AM 33.8 °F 27.0 °F 27.3 °F 77% 30.13 in 10.0 mi East 8.1 mph - N/A   Scattered Clouds
11:15 AM 33.8 °F - 27.7 °F 78% 30.14 in 10.0 mi Calm Calm - N/A   Overcast
11:35 AM 35.4 °F - 28.2 °F 75% 30.14 in 10.0 mi Calm Calm - N/A   Overcast
11:55 AM 34.5 °F - 27.5 °F 76% 30.12 in 10.0 mi Calm Calm - N/A   Mostly Cloudy
12:15 PM 34.5 °F 31.6 °F 27.7 °F 76% 30.11 in 10.0 mi North 3.5 mph - N/A   Scattered Clouds
12:35 PM 34.7 °F - 27.9 °F 76% 30.10 in 10.0 mi Calm Calm - N/A   Mostly Cloudy
12:55 PM 35.6 °F - 27.7 °F 73% 30.09 in 10.0 mi Calm Calm - N/A   Mostly Cloudy
1:15 PM 36.3 °F - 28.0 °F 72% 30.09 in 10.0 mi Calm Calm - N/A   Mostly Cloudy
1:35 PM 36.5 °F - 27.5 °F 70% 30.08 in 10.0 mi Calm Calm - N/A   Scattered Clouds
1:55 PM 36.5 °F - 27.7 °F 70% 30.07 in 10.0 mi Calm Calm - N/A   Clear
2:15 PM 36.7 °F - 27.5 °F 69% 30.06 in 10.0 mi Calm Calm - N/A   Scattered Clouds
2:35 PM 36.7 °F - 27.7 °F 70% 30.06 in 10.0 mi Calm Calm - N/A   Mostly Cloudy
2:55 PM 36.7 °F - 28.0 °F 71% 30.04 in 10.0 mi Calm Calm - N/A   Overcast
3:15 PM 36.7 °F - 28.2 °F 71% 30.03 in 10.0 mi Calm Calm - N/A   Overcast
3:35 PM 36.7 °F - 28.4 °F 72% 30.03 in 10.0 mi Calm Calm - N/A   Overcast
3:55 PM 36.5 °F 33.9 °F 28.4 °F 72% 30.03 in 10.0 mi ENE 3.5 mph - N/A   Overcast
4:15 PM 36.1 °F - 28.2 °F 73% 30.03 in 10.0 mi Calm Calm - N/A   Overcast
4:35 PM 36.1 °F - 28.4 °F 73% 30.02 in 10.0 mi Calm Calm - N/A   Overcast
4:55 PM 35.6 °F - 28.4 °F 75% 30.02 in 10.0 mi Calm Calm - N/A   Mostly Cloudy
5:15 PM 35.1 °F - 28.2 °F 76% 30.02 in 10.0 mi Calm Calm - N/A   Overcast
5:35 PM 34.9 °F - 28.4 °F 77% 30.02 in 10.0 mi Calm Calm - N/A   Overcast
5:55 PM 34.9 °F - 28.0 °F 76% 30.02 in 10.0 mi Calm Calm - N/A   Overcast
6:15 PM 34.7 °F 31.8 °F 28.2 °F 77% 30.01 in 10.0 mi East 3.5 mph - N/A   Overcast
6:35 PM 34.3 °F 31.4 °F 28.4 °F 79% 30.01 in 10.0 mi East 3.5 mph - N/A   Overcast
6:55 PM 33.3 °F - 29.1 °F 85% 30.01 in 10.0 mi Calm Calm - N/A   Overcast
7:15 PM 33.4 °F 30.4 °F 29.3 °F 85% 30.00 in 10.0 mi ESE 3.5 mph - N/A   Overcast
7:35 PM 33.6 °F 30.6 °F 29.3 °F 84% 30.00 in 10.0 mi SE 3.5 mph - N/A   Overcast
7:55 PM 33.8 °F - 29.1 °F 83% 30.00 in 10.0 mi Calm Calm - N/A   Overcast
8:15 PM 33.8 °F 27.7 °F 28.9 °F 82% 29.97 in 10.0 mi SE 6.9 mph - N/A   Overcast
8:35 PM 33.6 °F 29.4 °F 29.3 °F 84% 29.96 in 10.0 mi East 4.6 mph - N/A   Mostly Cloudy
8:55 PM 33.3 °F 28.9 °F 28.8 °F 84% 29.95 in 10.0 mi East 4.6 mph - N/A   Overcast
9:15 PM 32.5 °F 26.2 °F 28.9 °F 87% 29.95 in 10.0 mi ESE 6.9 mph - N/A   Overcast
9:35 PM 33.3 °F 27.1 °F 29.1 °F 85% 29.94 in 10.0 mi ESE 6.9 mph - N/A   Overcast
9:55 PM 33.4 °F 27.3 °F 28.9 °F 84% 29.94 in 10.0 mi SE 6.9 mph - N/A   Overcast
10:15 PM 34.0 °F 26.6 °F 29.1 °F 82% 29.93 in 10.0 mi SE 9.2 mph - N/A   Overcast
10:35 PM 33.8 °F 27.0 °F 29.1 °F 83% 29.93 in 10.0 mi ESE 8.1 mph - N/A   Overcast
10:55 PM 33.6 °F 28.4 °F 29.1 °F 84% 29.93 in 10.0 mi SE 5.8 mph - N/A   Overcast
11:15 PM 32.9 °F 28.5 °F 29.7 °F 88% 29.93 in 7.0 mi ESE 4.6 mph - N/A   Overcast
11:35 PM 32.9 °F 28.5 °F 30.0 °F 89% 29.93 in 7.0 mi ESE 4.6 mph - N/A   Overcast
11:55 PM 32.9 °F 26.7 °F 30.2 °F 90% 29.92 in 7.0 mi ESE 6.9 mph - N/A   Overcast